Погода в Березовке

Россия / Кемеровская область (Кузбасс)     55°06′50″N   86°30′29″E
темп.,
°C
ветер,
м/с
пор.,
м/с
влажн.,
%
обл.,
%
осадки,
мм/ч
давл.,
гПа
погр.,
м
30 ноября, вт
вт3001:00−12ююв248997 0.0 103358
04:00−14ююв2491100 0.0 103242
07:00−14ююв2490100 0.0 103141
10:00−11ююв3888100 0.0 1030110
13:00−7ю31084100 0.0 1029241
16:00−7ю498498 0.0 1028161
19:00−8ю4108427 0.0 1028160
22:00−11ю38845 0.0 1028106
1 декабря, ср
ср101:00−13ю36905 0.0 102976
04:00−13ю24905 0.0 102957
07:00−16ююв249470 0.0 103043
10:00−15ююв369464 0.0 103169
13:00−9ююв388853 0.0 1031217
16:00−8ююв4108846 0.0 1030160
19:00−11ююв249181 0.0 103045
22:00−13ююв229299 0.0 103010
2 декабря, чт
чт201:00−12ю3688100 0.0 102974
04:00−11ююв3788100 0.0 102886
07:00−11ююв3987100 0.0 1028112
10:00−10ююв3886100 0.0 1028113
13:00−5ю31082100 0.0 1026206
16:00−6ююв3884100 0.0 1025114
19:00−8ююв3885100 0.0 102487
22:00−8ююв3884100 0.0 1023105
3 декабря, пт
пт301:00−9ююв388062 0.0 1021108
04:00−10юв35835 0.0 102053
07:00−10юв38811 0.0 101894
10:00−9юв311775 0.0 1016139
13:00−3ю515705 0.0 1013296
16:00+1ююз71662100 0.0 1011534
19:000ююз71482100 0.2 1010658
22:000юз61398100 3.7 1012800
4 декабря, сб
сб401:000юз51298100 7.1 1012809
04:00−1зюз61286100 0.8 1016724
07:00−4юз61486100 0.8 1020521
10:00−4юз71488100 0.0 1022806
13:00−5юз61288100 0.1 1024968
16:00−5юз61295100 0.5 1025909
19:00−5юз61294100 1.2 1027823
22:00−7зюз61387100 0.1 1029588